When you browse on this site, cookies collect data to enhance your experience and personalize the content and advertising you see.
Visit our Privacy Policy to learn more. By continuing to use the site, you agree to this use of cookies and data.
  • In Schweiz
  • Länderverzeichnis
  • Für 7 Tage
  • Wassertemperatur
  • Satellitenkarten
  • Wetterkarte
  • Widgets
  • user-avatar
    Anmelden

    Stündliche Wetter Krasnyy Kolos

    Heute, 21 Februar, Donnerstag

    Zeit Temperatur Niederschläge Wind Luftdruck Luftfeuchtigkeit
    00:00 0°C° 0 mm 3 m/S 752 mmHg 82%
    01:00 0°C° 0 mm 3 m/S 752 mmHg 85%
    02:00 0°C° 0 mm 3 m/S 752 mmHg 88%
    03:00 -1°C° 0 mm 3 m/S 751 mmHg 91%
    04:00 -1°C° 0 mm 4 m/S 751 mmHg 91%
    05:00 -1°C° 0 mm 4 m/S 751 mmHg 92%
    06:00 0°C° 0 mm 4 m/S 751 mmHg 93%
    07:00 0°C° 0.1 mm 5 m/S 750 mmHg 92%
    08:00 0°C° 0.1 mm 5 m/S 750 mmHg 92%
    09:00 +1°C° 0.1 mm 5 m/S 750 mmHg 92%
    10:00 +2°C° 0.1 mm 6 m/S 750 mmHg 86%
    11:00 +3°C° 0.1 mm 6 m/S 750 mmHg 80%
    12:00 +4°C° 0.1 mm 6 m/S 750 mmHg 73%
    13:00 +4°C° 0.1 mm 7 m/S 749 mmHg 68%
    14:00 +4°C° 0.1 mm 8 m/S 749 mmHg 62%
    15:00 +5°C° 0.1 mm 8 m/S 749 mmHg 57%
    16:00 +4°C° 0.1 mm 8 m/S 749 mmHg 60%
    17:00 +3°C° 0.1 mm 7 m/S 749 mmHg 64%
    18:00 +2°C° 0.1 mm 7 m/S 749 mmHg 68%
    19:00 0°C° 0.1 mm 7 m/S 750 mmHg 68%
    20:00 -1°C° 0.1 mm 7 m/S 750 mmHg 67%
    21:00 -3°C° 0.1 mm 7 m/S 751 mmHg 67%
    22:00 -3°C° 0 mm 7 m/S 751 mmHg 65%
    23:00 -4°C° 0 mm 6 m/S 751 mmHg 62%

    Morgen, 22 Februar, Freitag

    Zeit Temperatur Niederschläge Wind Luftdruck Luftfeuchtigkeit
    00:00 -4°C° 0 mm 6 m/S 751 mmHg 59%
    01:00 -4°C° 0 mm 6 m/S 752 mmHg 58%
    02:00 -5°C° 0 mm 6 m/S 752 mmHg 57%
    03:00 -6°C° 0 mm 7 m/S 752 mmHg 56%
    04:00 -5°C° 0 mm 6 m/S 752 mmHg 55%
    05:00 -5°C° 0 mm 6 m/S 752 mmHg 54%
    06:00 -6°C° 0 mm 6 m/S 752 mmHg 53%
    07:00 -6°C° 0 mm 6 m/S 752 mmHg 53%
    08:00 -6°C° 0 mm 6 m/S 753 mmHg 53%
    09:00 -5°C° 0 mm 6 m/S 753 mmHg 53%
    10:00 -5°C° 0 mm 5 m/S 753 mmHg 51%
    11:00 -4°C° 0 mm 5 m/S 753 mmHg 50%
    12:00 -4°C° 0 mm 5 m/S 753 mmHg 48%
    13:00 -4°C° 0 mm 5 m/S 753 mmHg 48%
    14:00 -3°C° 0 mm 4 m/S 753 mmHg 48%
    15:00 -3°C° 0 mm 4 m/S 753 mmHg 48%
    16:00 -3°C° 0 mm 4 m/S 753 mmHg 51%
    17:00 -4°C° 0 mm 3 m/S 753 mmHg 54%
    18:00 -3°C° 0 mm 2 m/S 753 mmHg 57%
    19:00 -5°C° 0.1 mm 3 m/S 753 mmHg 63%
    20:00 -5°C° 0.1 mm 3 m/S 754 mmHg 68%
    21:00 -7°C° 0.1 mm 4 m/S 754 mmHg 73%
    22:00 -7°C° 0.5 mm 4 m/S 754 mmHg 78%
    23:00 -8°C° 0.5 mm 5 m/S 754 mmHg 82%

    übermorgen, 23 Februar, Samstag

    Zeit Temperatur Niederschläge Wind Luftdruck Luftfeuchtigkeit
    00:00 -8°C° 0.5 mm 5 m/S 754 mmHg 86%
    01:00 -10°C° 0.6 mm 5 m/S 754 mmHg 87%
    02:00 -10°C° 0.6 mm 6 m/S 754 mmHg 88%
    03:00 -10°C° 0.6 mm 6 m/S 754 mmHg 89%
    04:00 -10°C° 0.9 mm 6 m/S 754 mmHg 90%
    05:00 -10°C° 0.9 mm 6 m/S 754 mmHg 90%
    06:00 -11°C° 0.9 mm 6 m/S 754 mmHg 91%
    07:00 -12°C° 0.5 mm 7 m/S 755 mmHg 91%
    08:00 -12°C° 0.5 mm 7 m/S 755 mmHg 91%
    09:00 -12°C° 0.5 mm 7 m/S 755 mmHg 91%
    10:00 -11°C° 0.2 mm 7 m/S 755 mmHg 90%
    11:00 -11°C° 0.2 mm 7 m/S 756 mmHg 89%
    12:00 -9°C° 0.2 mm 7 m/S 756 mmHg 88%
    13:00 -9°C° 0.5 mm 7 m/S 756 mmHg 90%
    14:00 -9°C° 0.5 mm 6 m/S 756 mmHg 91%
    15:00 -9°C° 0.5 mm 6 m/S 756 mmHg 93%
    16:00 -9°C° 0.9 mm 6 m/S 757 mmHg 93%
    17:00 -9°C° 0.9 mm 6 m/S 757 mmHg 93%
    18:00 -9°C° 0.9 mm 6 m/S 757 mmHg 93%
    19:00 -9°C° 0.3 mm 6 m/S 757 mmHg 93%
    20:00 -9°C° 0.3 mm 6 m/S 758 mmHg 92%
    21:00 -9°C° 0.3 mm 6 m/S 758 mmHg 92%
    22:00 -8°C° 0.2 mm 5 m/S 758 mmHg 92%
    23:00 -8°C° 0.2 mm 5 m/S 758 mmHg 92%

    24 Februar, Sonntag

    Zeit Temperatur Niederschläge Wind Luftdruck Luftfeuchtigkeit
    00:00 -8°C° 0.2 mm 5 m/S 758 mmHg 92%
    01:00 -8°C° 0.1 mm 5 m/S 758 mmHg 92%
    02:00 -8°C° 0.1 mm 4 m/S 758 mmHg 92%
    03:00 -8°C° 0.1 mm 4 m/S 758 mmHg 92%
    04:00 -8°C° 0 mm 4 m/S 758 mmHg 93%
    05:00 -8°C° 0 mm 4 m/S 758 mmHg 93%
    06:00 -7°C° 0 mm 3 m/S 758 mmHg 93%
    07:00 -7°C° 0 mm 3 m/S 759 mmHg 93%
    08:00 -7°C° 0 mm 3 m/S 759 mmHg 94%
    09:00 -6°C° 0 mm 3 m/S 759 mmHg 94%
    10:00 -6°C° 0.1 mm 3 m/S 760 mmHg 94%
    11:00 -5°C° 0.1 mm 3 m/S 760 mmHg 94%
    12:00 -3°C° 0.1 mm 2 m/S 760 mmHg 94%
    13:00 -3°C° 0.1 mm 2 m/S 760 mmHg 95%
    14:00 -1°C° 0.1 mm 1 m/S 760 mmHg 95%
    15:00 0°C° 0.1 mm 1 m/S 759 mmHg 96%
    16:00 0°C° 0.1 mm 1 m/S 759 mmHg 96%
    17:00 -1°C° 0.1 mm 1 m/S 760 mmHg 95%
    18:00 -1°C° 0.1 mm 1 m/S 760 mmHg 95%
    19:00 -1°C° 0 mm 1 m/S 760 mmHg 95%
    20:00 -1°C° 0 mm 1 m/S 760 mmHg 95%
    21:00 -1°C° 0 mm 1 m/S 760 mmHg 95%
    22:00 -1°C° 0.1 mm 1 m/S 760 mmHg 96%
    23:00 -1°C° 0.1 mm 1 m/S 760 mmHg 96%

    25 Februar, Montag

    Zeit Temperatur Niederschläge Wind Luftdruck Luftfeuchtigkeit
    00:00 -1°C° 0.1 mm 1 m/S 760 mmHg 96%
    01:00 -2°C° 0.1 mm 1 m/S 759 mmHg 96%
    02:00 -2°C° 0.1 mm 1 m/S 759 mmHg 95%
    03:00 -2°C° 0.1 mm 1 m/S 759 mmHg 95%
    04:00 -2°C° 0 mm 1 m/S 759 mmHg 95%
    05:00 -3°C° 0 mm 0 m/S 758 mmHg 95%
    06:00 -4°C° 0 mm 0 m/S 758 mmHg 95%
    07:00 -3°C° 0 mm 0 m/S 758 mmHg 95%
    08:00 -2°C° 0 mm 0 m/S 758 mmHg 95%
    09:00 -2°C° 0 mm 0 m/S 758 mmHg 95%
    10:00 -1°C° 0.1 mm 1 m/S 757 mmHg 96%
    11:00 0°C° 0.1 mm 1 m/S 757 mmHg 97%
    12:00 -2°C° 0.1 mm 2 m/S 757 mmHg 99%
    13:00 -2°C° 0.1 mm 2 m/S 756 mmHg 98%
    14:00 -2°C° 0.1 mm 2 m/S 756 mmHg 98%
    15:00 -1°C° 0.1 mm 2 m/S 755 mmHg 98%
    16:00 -2°C° 0.1 mm 2 m/S 755 mmHg 96%
    17:00 -2°C° 0.1 mm 2 m/S 754 mmHg 95%
    18:00 -3°C° 0.1 mm 2 m/S 754 mmHg 93%
    19:00 -4°C° 0.1 mm 3 m/S 753 mmHg 92%
    20:00 -5°C° 0.1 mm 3 m/S 753 mmHg 91%
    21:00 -6°C° 0.1 mm 3 m/S 752 mmHg 90%
    22:00 -6°C° 0.1 mm 3 m/S 752 mmHg 90%
    23:00 -6°C° 0.1 mm 3 m/S 751 mmHg 90%

    26 Februar, Dienstag

    Zeit Temperatur Niederschläge Wind Luftdruck Luftfeuchtigkeit
    00:00 -6°C° 0.1 mm 2 m/S 751 mmHg 89%
    01:00 -6°C° 0.1 mm 2 m/S 750 mmHg 90%
    02:00 -7°C° 0.1 mm 3 m/S 750 mmHg 91%
    03:00 -7°C° 0.1 mm 3 m/S 749 mmHg 92%
    04:00 -7°C° 0 mm 3 m/S 749 mmHg 91%
    05:00 -7°C° 0 mm 3 m/S 749 mmHg 91%
    06:00 -8°C° 0 mm 4 m/S 748 mmHg 91%
    07:00 -8°C° 0.2 mm 5 m/S 748 mmHg 91%
    08:00 -9°C° 0.2 mm 6 m/S 748 mmHg 90%
    09:00 -8°C° 0.2 mm 6 m/S 748 mmHg 90%
    10:00 -8°C° 0 mm 7 m/S 747 mmHg 87%
    11:00 -7°C° 0 mm 7 m/S 747 mmHg 85%
    12:00 -7°C° 0 mm 7 m/S 746 mmHg 82%
    13:00 -7°C° 0 mm 7 m/S 746 mmHg 82%
    14:00 -7°C° 0 mm 7 m/S 745 mmHg 81%
    15:00 -7°C° 0 mm 7 m/S 744 mmHg 81%
    16:00 -7°C° 0.1 mm 7 m/S 744 mmHg 83%
    17:00 -7°C° 0.1 mm 7 m/S 744 mmHg 85%
    18:00 -7°C° 0.1 mm 7 m/S 743 mmHg 87%
    19:00 -7°C° 0.1 mm 7 m/S 743 mmHg 87%
    20:00 -6°C° 0.1 mm 7 m/S 743 mmHg 87%
    21:00 -6°C° 0.1 mm 7 m/S 742 mmHg 88%
    22:00 -6°C° 0 mm 7 m/S 742 mmHg 87%
    23:00 -7°C° 0 mm 7 m/S 742 mmHg 87%
    Mehr zeigen